Theta_e
313 313 313 313 313 313 313 313 313 314 315 315 316 316 316 316 314 313 320 321 313 313 316 313 312 310 311 312 307 310 309 312 311 305 304 305 305 307 307 311 310 310 310 304 307 310 306 324 324 317 325 329 328 328
314 314 314 314 313 313 313 313 313 313 314 314 315 315 315 315 314 314 316 321 319 314 315 316 314 314 312 311 308 309 308 310 311 306 308 309 306 308 309 305 315 308 313 313 315 314 321 323 322 326 329 326 327 327
315 314 314 314 314 313 314 313 313 313 314 314 314 315 315 314 314 314 316 319 317 315 313 314 312 314 314 313 313 305 312 314 311 313 308 307 305 308 303 305 308 313 322 315 316 319 319 319 321 322 324 323 324 325
315 315 315 315 314 314 314 314 314 313 313 313 314 314 314 313 313 313 318 318 316 313 309 311 316 312 315 314 313 312 310 311 310 309 306 305 303 310 305 307 306 309 311 311 312 317 320 323 322 320 320 321 322 323
316 316 315 315 314 314 314 314 313 313 313 313 313 314 314 313 313 315 320 319 317 311 305 307 314 315 314 312 311 312 310 308 307 305 304 303 307 306 307 307 304 309 308 305 305 313 312 315 323 322 318 318 320 319
315 316 315 315 315 315 314 314 314 313 312 313 313 313 313 311 312 316 316 319 315 315 307 304 314 310 310 311 311 310 310 309 308 306 305 307 310 306 302 301 308 310 311 311 310 312 312 313 314 318 320 317 318 319
316 316 315 315 315 315 314 314 313 313 312 312 312 312 312 311 313 313 311 311 311 315 308 306 307 309 310 310 309 309 311 309 308 306 304 305 306 307 303 300 307 309 310 311 311 311 309 311 310 313 315 317 316 317
315 315 315 315 315 315 314 314 313 312 312 311 311 312 312 311 310 312 317 313 311 310 311 303 305 307 311 307 306 313 308 309 308 306 307 305 306 305 300 306 309 309 310 310 310 311 310 311 312 312 313 313 313 312
314 314 315 315 315 315 314 313 313 312 311 311 311 312 314 313 316 313 315 313 317 312 307 307 302 301 312 308 309 309 310 303 310 305 305 305 303 300 306 310 310 309 309 310 311 311 310 309 310 311 312 312 311 311
314 314 314 314 314 314 314 313 312 311 310 311 314 315 313 313 314 315 313 312 311 311 309 303 308 302 308 307 306 306 308 303 300 304 309 303 302 309 312 313 314 313 311 311 308 307 309 309 310 310 310 311 312 312
314 314 314 314 314 314 313 312 311 310 314 316 311 311 311 317 314 313 308 306 309 305 310 309 308 305 312 303 303 307 303 303 297 301 301 300 300 308 314 315 317 314 312 311 311 311 311 311 310 310 311 312 312 313
313 313 313 313 313 313 312 311 310 312 312 308 305 308 312 313 311 303 305 306 305 304 308 307 307 308 308 311 304 305 301 303 296 306 300 297 305 314 313 312 312 314 311 310 312 311 311 310 311 311 311 312 314 316
312 313 313 313 313 312 312 311 310 310 309 314 310 310 310 306 296 300 298 303 303 307 308 307 305 308 308 308 305 302 298 297 305 299 297 301 313 314 314 312 311 311 311 311 311 312 311 311 311 311 312 314 316 316
312 312 312 312 313 312 310 310 310 310 311 311 308 295 302 303 305 305 304 305 308 308 307 307 305 304 306 302 302 296 300 301 295 294 297 307 312 313 314 313 312 311 313 312 312 312 312 312 312 315 313 315 318 320
312 312 312 313 311 309 310 310 310 313 312 308 309 294 303 308 309 309 310 310 310 311 309 306 305 304 302 300 300 299 295 294 296 296 303 309 310 310 310 309 308 307 307 307 309 309 309 309 309 310 312 317 318 320
312 311 316 311 310 310 310 311 315 314 313 309 308 305 308 306 307 309 309 308 311 309 308 306 300 298 298 300 297 295 294 294 299 304 307 308 308 307 307 307 308 308 308 307 306 306 308 309 309 310 313 312 318 320
310 316 309 310 310 309 310 312 316 311 309 308 307 310 309 309 308 309 310 309 312 307 300 299 294 295 302 298 295 300 297 299 301 302 304 304 303 304 306 307 308 309 307 306 307 308 307 309 310 309 311 310 315 319
310 315 310 310 310 312 317 313 311 309 306 309 306 308 311 311 309 310 311 311 308 305 303 297 300 295 294 292 294 298 300 302 303 303 303 304 305 305 306 306 308 307 307 307 309 310 307 306 307 308 310 312 317 318
311 312 310 310 309 307 309 311 311 304 307 309 309 311 311 310 312 312 311 313 310 310 304 298 294 293 293 297 297 299 300 301 300 302 303 304 306 306 306 308 308 309 309 308 308 310 306 309 309 311 312 312 312 313
310 311 311 310 308 309 307 309 314 307 304 307 309 308 310 309 311 311 310 310 308 303 297 293 293 296 298 300 302 302 302 303 302 299 301 304 307 306 307 308 312 314 310 310 310 306 307 307 311 312 313 312 312 311
307 312 309 308 311 310 309 308 308 308 308 306 309 308 307 310 308 307 307 310 306 301 294 297 298 300 302 303 303 303 303 303 303 305 305 305 308 310 309 309 309 310 310 308 307 306 304 305 310 312 314 315 314 314
311 305 309 310 306 306 302 307 306 307 304 305 306 309 307 305 305 306 311 305 303 300 300 300 301 302 303 304 307 308 309 310 312 315 305 305 303 303 302 303 304 304 305 307 307 306 305 307 310 314 317 314 310 312
310 308 308 306 301 298 298 308 301 304 301 305 307 304 303 304 307 312 305 303 304 307 305 305 305 307 308 310 312 313 316 316 311 307 307 305 304 305 304 305 305 305 305 306 308 307 307 305 307 313 315 311 312 312
304 304 300 299 299 296 305 302 305 303 304 301 300 298 301 304 308 305 302 302 307 309 307 307 309 309 312 314 311 312 318 315 310 309 308 306 304 304 305 305 306 306 306 307 306 307 308 309 306 313 313 312 313 311
296 296 296 290 301 297 299 300 301 300 297 300 299 299 301 307 302 301 301 305 308 308 308 309 309 311 311 312 315 317 319 313 309 307 309 310 306 304 305 305 306 307 308 307 307 306 307 308 309 310 311 312 311 311
291 299 293 300 302 300 302 299 299 299 299 298 300 305 306 302 299 300 305 307 307 310 311 308 309 312 312 317 319 320 317 315 313 310 309 311 307 305 305 304 303 306 309 308 309 309 310 310 310 309 309 310 300 307
290 299 303 307 305 305 302 304 305 302 298 297 301 302 303 297 299 306 314 313 312 313 315 318 316 316 317 316 320 328 326 321 317 313 313 312 312 311 309 306 305 308 311 310 310 309 309 309 309 309 309 308 308 309
298 301 300 304 304 305 300 300 300 300 301 304 304 299 298 300 303 311 313 314 316 317 319 319 321 328 323 323 329 328 325 327 319 316 314 313 313 312 312 312 312 301 306 309 311 311 310 310 309 309 308 309 310 313
298 303 303 300 302 301 301 300 302 305 307 305 302 301 304 309 313 314 313 317 320 320 316 319 323 326 331 335 324 322 327 325 321 315 311 310 310 311 315 315 314 312 313 312 303 310 313 313 312 312 312 314 314 317
299 305 301 297 296 298 303 307 307 310 311 310 311 310 310 312 316 319 319 320 319 318 321 326 326 321 324 325 321 320 323 323 322 319 316 313 314 316 315 314 312 313 315 316 316 317 303 309 309 315 315 319 322 322
304 302 299 299 300 305 308 310 312 312 312 311 312 310 310 313 317 321 321 322 322 323 325 325 322 323 323 321 322 320 318 322 322 321 320 322 321 321 318 316 316 319 320 321 319 317 317 317 320 321 324 323 321 321
302 300 297 296 302 309 310 309 310 310 310 311 311 314 315 314 313 319 324 324 323 322 317 320 326 325 327 323 323 323 313 322 322 322 321 322 324 324 322 322 322 323 322 319 318 317 317 318 319 319 321 323 324 325
301 300 301 300 301 304 309 308 308 308 311 311 312 313 315 315 313 320 326 327 325 324 324 323 328 324 328 330 324 321 317 323 316 304 303 305 308 313 322 323 324 322 321 320 323 324 319 319 319 320 323 323 322 320
Wind_Speed
14 16 17 18 19 20 21 22 23 24 25 25 26 26 25 25 23 13 8 10 7 7 6 6 6 7 8 4 7 14 9 1 7 8 9 11 13 13 17 18 18 15 6 6 7 23 5 16 3 3 7 6 9 9
14 15 16 17 18 19 20 22 22 23 24 24 25 26 25 23 22 16 6 9 7 5 9 5 5 3 3 4 6 8 11 7 5 6 8 7 11 10 13 12 11 9 10 6 7 3 7 13 13 15 14 11 10 8
14 15 16 17 18 19 20 21 22 23 23 24 24 25 24 22 21 12 7 9 9 6 10 7 7 6 6 4 5 5 5 8 7 7 6 5 7 7 9 10 14 13 7 3 5 7 12 11 9 8 9 7 7 6
14 15 16 17 18 19 20 20 22 23 24 24 24 24 24 21 19 13 7 7 8 6 6 5 6 5 1 7 3 7 10 8 9 6 7 7 9 9 10 11 11 11 8 6 7 10 6 7 6 6 5 5 6 6
14 15 16 17 18 19 20 21 22 24 24 24 24 24 22 19 16 9 8 5 9 7 6 11 16 11 12 6 4 8 9 10 7 7 7 9 9 11 10 12 11 10 12 9 8 9 9 7 10 9 3 5 4 4
13 15 16 17 18 19 20 22 23 25 25 25 23 22 20 16 13 6 5 7 9 8 6 6 1 4 2 4 7 9 8 8 7 7 8 8 13 10 7 10 11 12 13 14 12 10 13 12 10 8 8 2 7 4
13 14 15 17 18 18 19 21 23 25 26 25 22 19 16 13 8 5 7 5 8 7 5 6 4 7 2 5 8 8 9 6 6 8 9 10 11 11 11 13 15 14 13 12 11 9 11 12 11 12 6 6 7 5
15 15 16 16 17 17 19 21 23 27 29 28 24 15 14 11 9 5 3 4 6 5 5 5 6 5 2 5 6 2 4 7 9 10 10 10 11 11 12 14 18 17 15 15 14 13 14 13 14 14 14 11 13 12
17 15 16 16 16 17 18 20 23 27 31 31 28 18 4 4 3 4 6 5 5 5 6 3 6 6 1 7 4 7 9 9 9 12 12 12 12 10 11 15 18 17 14 12 11 14 14 15 15 16 15 15 14 12
14 15 15 16 16 16 17 20 23 27 31 31 10 5 3 5 6 10 4 5 7 6 6 5 5 7 7 8 9 10 6 9 10 10 9 12 13 16 16 17 14 14 15 13 13 12 15 17 14 14 14 14 14 12
14 14 14 14 15 14 15 18 21 25 16 8 7 4 8 12 4 5 3 4 3 5 5 3 5 7 7 10 9 5 6 7 8 8 13 13 13 12 11 13 13 14 7 6 9 11 13 17 16 13 12 13 11 13
14 15 14 14 14 13 14 15 15 11 8 10 9 9 6 5 3 4 3 2 6 3 4 4 7 7 6 3 5 5 8 5 7 6 7 8 5 7 9 9 7 4 1 6 7 9 10 13 14 13 12 11 11 9
15 15 15 14 13 13 14 11 12 15 19 4 5 6 1 3 3 5 2 4 7 7 9 10 10 8 7 2 3 5 6 7 9 6 11 10 6 5 4 3 2 1 3 4 6 6 8 10 13 13 15 8 7 7
15 16 16 16 14 14 11 11 13 11 7 5 4 5 4 5 6 4 8 8 7 8 8 7 7 6 7 4 4 6 6 6 7 10 14 6 10 12 13 14 13 12 15 8 6 9 13 15 17 19 12 8 9 6
16 18 19 16 3 8 12 14 14 6 5 5 4 4 7 8 8 8 9 6 5 6 7 8 8 8 9 5 3 5 6 7 7 9 3 6 7 8 10 13 17 18 14 11 12 13 15 18 18 18 17 15 9 6
16 21 0 7 10 12 16 16 7 5 4 4 6 8 9 10 10 10 9 8 7 6 6 5 3 5 5 3 5 8 6 8 5 7 9 9 14 15 18 21 19 15 17 16 14 15 18 20 20 20 19 19 11 10
12 4 8 10 15 20 16 5 5 6 6 5 6 8 10 11 9 8 9 8 6 5 2 1 4 6 3 5 7 6 10 8 10 13 13 19 21 19 18 19 19 17 16 16 16 16 16 16 17 17 17 16 14 12
5 5 8 13 15 13 1 5 5 5 7 8 9 7 8 8 9 8 8 7 6 3 2 3 3 5 5 5 7 10 11 13 13 14 16 18 19 19 18 20 20 18 18 16 16 16 13 15 17 13 14 17 12 10
11 11 10 11 8 6 5 5 4 6 7 9 8 7 8 9 9 9 8 2 3 2 4 1 5 5 5 7 12 15 14 14 15 16 16 21 21 21 21 22 20 18 16 14 14 12 11 15 14 10 4 6 7 8
14 11 12 11 6 5 5 4 3 6 6 6 10 9 8 9 9 7 6 2 4 5 3 3 7 8 10 12 13 15 15 15 14 17 18 14 14 15 18 16 12 11 10 12 11 12 9 10 10 9 5 6 11 6
4 3 5 5 4 5 6 6 5 6 7 7 9 10 8 9 6 7 4 3 4 3 4 6 8 12 13 14 14 14 16 16 16 15 15 7 6 9 9 7 8 7 7 7 9 10 13 10 10 10 9 12 6 9
1 3 4 2 4 3 4 5 6 9 6 8 11 10 9 6 5 4 2 6 3 2 4 5 9 10 14 16 15 17 19 19 14 8 5 9 9 9 7 7 6 7 7 6 8 8 9 9 8 8 9 4 7 6
6 4 2 3 3 3 7 5 5 5 5 6 9 9 7 4 4 4 3 3 2 5 5 7 13 16 15 17 17 16 15 11 7 7 7 6 5 6 6 5 5 2 2 4 6 6 7 8 6 8 6 2 6 8
1 3 3 3 5 5 6 4 5 5 6 6 4 7 7 4 6 5 2 3 4 3 4 11 9 12 13 13 9 8 8 8 7 6 5 4 5 5 5 5 5 4 3 4 4 5 3 7 10 9 9 9 7 6
4 4 4 5 5 5 6 6 11 6 6 10 14 10 3 3 4 4 3 4 3 1 3 8 10 9 10 10 10 8 7 7 7 8 7 3 4 4 5 5 4 3 1 3 5 7 6 7 10 7 5 5 7 12
5 7 7 6 5 6 4 6 4 4 8 10 5 3 3 4 4 5 4 1 2 5 6 5 8 11 11 10 10 8 6 6 4 6 5 3 5 3 3 5 3 2 1 2 4 7 12 13 12 17 10 10 4 5
5 7 7 6 7 6 7 8 10 9 4 4 3 3 3 3 4 4 4 1 5 5 6 6 8 9 11 10 9 5 5 5 4 5 3 2 4 4 2 3 5 2 2 2 6 7 8 7 6 6 3 3 4 7
6 6 9 7 8 4 7 7 6 5 3 3 2 3 3 5 5 8 6 7 10 11 10 8 8 6 7 9 5 2 1 6 2 5 6 6 5 4 4 4 4 3 6 4 3 1 4 4 2 2 7 8 8 8
6 6 5 9 9 4 5 6 6 4 4 5 7 9 11 11 11 12 11 11 10 8 9 11 6 9 9 6 3 7 4 5 8 9 8 2 4 3 5 3 5 7 6 5 8 3 6 8 9 9 11 10 11 12
7 8 5 3 5 6 7 8 8 9 9 9 9 11 11 10 10 10 10 10 10 10 10 9 11 7 5 4 6 7 9 9 7 6 5 2 3 5 6 7 10 8 6 3 3 2 5 5 7 7 6 3 6 10
2 2 4 5 7 9 9 9 10 10 11 11 11 11 12 11 10 10 8 8 8 10 9 10 1 3 5 9 8 8 9 6 8 11 13 7 3 4 4 5 4 3 3 4 5 6 8 9 9 11 14 14 12 13
3 6 4 5 7 7 12 10 8 9 9 9 9 9 8 7 8 8 7 5 6 7 7 6 18 16 12 8 10 8 12 8 2 4 6 4 5 6 6 5 3 2 1 3 4 5 2 3 5 5 5 7 9 11
5 4 5 6 6 5 4 6 5 5 6 7 9 8 12 7 8 7 7 5 5 4 3 7 6 9 6 7 11 10 8 7 9 9 6 4 6 4 3 3 3 4 4 3 5 5 11 14 14 14 16 14 13 15
Wind_Direction
340 342 342 343 346 347 347 346 346 347 347 346 346 346 349 349 351 348 296 25 354 322 39 3 347 336 330 317 315 359 305 148 300 285 272 270 267 270 273 270 273 275 194 150 256 267 195 20 40 27 104 133 79 71
333 334 336 338 343 344 343 343 343 344 343 344 343 341 344 344 346 343 303 360 322 265 330 339 322 311 307 337 316 324 304 292 355 304 342 326 316 310 302 289 314 286 317 349 348 100 94 52 48 31 68 66 43 57
324 326 331 335 337 337 338 338 339 339 339 340 340 338 340 339 338 342 308 332 318 269 285 218 193 171 230 274 325 290 360 7 301 38 310 296 292 322 291 293 311 290 39 321 355 75 95 90 77 53 56 69 70 39
321 325 327 330 330 331 332 335 336 336 336 336 336 336 337 335 334 333 314 1 349 307 281 126 134 206 254 285 268 302 304 287 276 288 270 281 288 290 282 295 287 294 341 333 310 284 268 165 163 126 89 65 59 37
320 320 324 326 325 327 331 333 334 334 333 333 333 335 333 331 329 305 281 27 19 347 325 308 307 269 177 228 260 275 273 280 276 264 250 255 260 272 274 280 274 284 286 279 284 303 323 341 57 101 87 6 32 9
315 317 321 322 322 326 330 331 331 329 328 330 332 333 331 329 328 290 189 84 8 350 296 284 50 164 302 313 292 275 274 278 273 274 278 277 278 278 270 267 269 267 269 267 276 280 287 288 280 263 179 229 305 306
315 315 318 319 322 327 329 327 325 325 323 325 327 328 326 328 300 327 11 25 335 301 251 269 262 102 285 263 261 254 238 250 261 272 265 271 267 261 265 264 273 282 297 292 295 289 271 271 275 284 263 211 249 237
323 323 321 319 322 324 324 324 325 324 320 318 315 317 303 308 279 233 118 350 320 260 272 277 280 170 148 305 278 227 282 270 262 266 256 263 273 260 248 255 261 268 275 272 270 267 269 262 244 242 258 258 252 257
327 325 320 321 321 323 324 324 325 322 317 313 311 305 250 222 286 24 345 283 237 298 304 280 301 335 106 287 283 291 271 258 261 261 261 248 247 238 257 244 252 264 268 280 293 291 275 256 261 256 239 242 253 252
323 320 320 321 321 323 325 325 327 320 311 305 287 218 200 30 304 288 166 195 200 181 225 266 293 284 6 345 309 308 308 288 268 269 283 241 250 263 268 272 273 279 284 293 290 278 284 287 272 255 256 258 246 252
316 317 319 319 320 323 322 327 329 319 297 342 342 330 335 307 271 220 282 250 147 233 182 280 329 314 341 338 331 299 299 311 285 275 263 259 261 261 259 269 254 257 260 302 291 289 284 275 283 275 249 249 253 244
313 315 315 315 315 315 319 328 332 328 346 312 297 287 262 253 247 282 259 193 222 357 356 327 322 308 291 307 282 296 283 251 248 296 292 265 289 39 11 3 46 82 32 286 294 300 294 292 280 281 284 267 238 246
312 313 313 310 309 306 313 315 318 301 297 212 214 224 282 281 349 236 300 354 358 336 342 333 309 313 306 319 283 267 260 258 298 257 256 269 322 127 55 22 19 228 244 272 292 304 291 284 282 269 260 261 275 257
314 312 307 304 300 299 299 307 316 322 279 265 295 316 256 228 234 353 337 314 350 322 291 294 298 291 293 280 226 260 268 264 243 252 257 41 46 29 17 10 354 345 357 343 338 335 350 350 341 330 292 248 248 223
313 306 296 296 302 301 299 298 293 289 274 272 266 244 242 263 312 316 298 313 320 320 338 326 317 302 273 226 245 258 248 243 235 241 357 65 23 352 335 330 323 312 308 306 312 314 306 307 309 312 304 281 214 236
319 298 233 351 323 307 296 301 254 215 261 249 245 260 276 307 315 329 324 320 339 343 17 348 331 283 274 227 250 232 242 236 305 2 350 332 320 319 312 312 296 280 281 288 285 280 278 279 284 286 282 303 224 197
307 262 12 343 323 304 284 263 255 217 254 244 242 240 272 275 281 319 324 308 305 292 359 8 257 242 353 259 240 246 266 322 333 319 306 296 292 288 282 278 274 270 262 261 259 255 259 266 259 256 261 293 226 189
262 333 17 348 330 302 279 211 260 262 248 246 267 280 309 308 291 290 313 320 304 330 173 226 273 257 241 252 260 285 288 283 280 279 279 279 278 274 272 273 272 266 258 246 245 244 239 244 248 243 242 277 205 201
298 300 315 321 325 300 279 188 256 267 265 295 292 298 311 298 283 283 294 347 117 118 118 149 245 239 245 239 261 271 275 280 286 286 279 277 270 269 269 268 263 260 246 235 235 223 218 232 236 229 206 322 236 179
287 278 259 278 279 269 268 242 198 269 284 300 309 287 309 309 295 294 293 259 119 124 127 214 226 231 248 262 263 270 276 281 281 282 281 279 272 270 267 256 259 254 242 230 218 190 207 235 225 215 189 220 260 175
255 118 204 226 205 255 283 299 249 270 308 296 298 312 300 293 308 306 315 121 174 187 218 230 251 260 265 264 272 275 275 271 268 271 279 313 305 286 292 282 279 286 249 235 187 190 193 203 227 201 167 230 204 146
279 288 286 164 275 211 269 273 284 317 283 278 290 279 290 326 336 326 337 223 167 191 216 241 263 275 283 287 287 288 286 287 292 310 302 341 331 323 313 291 279 262 245 218 180 178 185 194 225 203 181 196 133 159
280 228 243 286 264 257 262 256 260 276 275 302 325 329 329 317 308 316 267 49 250 204 222 261 270 280 284 288 289 292 300 317 328 358 3 352 313 311 314 326 327 339 107 146 157 161 173 180 195 172 150 145 154 146
192 264 252 245 215 267 279 234 228 270 302 306 313 314 293 308 295 275 231 229 236 139 243 276 292 304 312 314 307 313 324 326 7 15 356 332 358 344 344 350 10 26 42 111 123 134 151 177 141 141 132 189 176 180
247 234 176 254 233 236 251 238 227 224 260 313 301 277 268 285 302 298 274 271 336 244 265 284 308 318 318 316 326 338 340 344 12 0 355 356 21 25 21 14 10 39 75 174 162 156 158 165 163 143 160 177 201 220
246 211 199 234 211 217 259 306 336 278 287 307 275 245 287 323 278 262 266 56 264 308 281 286 300 314 312 318 327 346 334 355 5 43 10 314 42 55 62 79 57 344 248 33 81 139 151 171 169 180 197 196 215 282
252 237 197 240 277 289 274 285 298 293 292 257 268 300 300 272 267 274 57 358 285 308 292 280 288 295 301 291 291 323 321 296 327 47 79 331 112 92 52 74 104 150 246 284 161 176 155 167 185 191 184 144 191 221
247 285 270 249 247 264 299 303 274 261 222 215 273 270 257 224 261 335 9 282 306 304 306 293 289 287 284 299 296 5 304 318 211 119 119 79 84 112 135 131 153 49 12 357 335 140 113 97 119 233 247 241 235 219
236 233 255 273 273 260 233 237 260 259 282 305 285 275 265 276 294 306 302 295 293 297 296 296 315 324 291 280 293 35 85 50 33 35 36 87 149 183 193 188 195 207 155 102 74 108 201 212 206 230 245 244 239 219
259 252 225 267 250 236 229 225 265 286 294 290 289 293 285 279 283 286 288 292 291 290 292 296 305 222 256 34 49 67 44 18 10 76 82 21 4 62 55 46 45 29 55 153 215 200 248 243 217 222 229 168 102 98
160 296 300 270 265 261 268 274 286 293 289 282 277 272 279 289 290 280 260 261 269 277 303 331 215 293 51 30 52 58 72 22 358 6 44 68 7 21 71 76 58 15 328 7 14 356 1 33 79 93 98 99 106 112
235 201 228 250 283 311 318 278 278 280 274 265 269 276 258 255 274 278 258 278 296 316 356 3 27 338 347 67 83 86 115 129 100 17 35 61 52 63 91 98 104 205 193 48 335 295 238 197 137 97 92 135 146 144
228 255 273 281 264 249 305 329 285 284 274 247 259 262 277 264 280 291 302 281 287 316 96 296 114 258 271 303 111 110 107 120 143 154 172 162 143 161 146 179 199 209 204 214 257 281 89 106 136 148 156 149 124 110